Weather History for Black River Falls, WI

Change the Weather History Date:

Sunday, October 7, 2012

  Actual Average (KLSE) Record (KLSE)
Temperature  
Mean Temperature 36 °F 54 °F  
Max Temperature 51 °F 64 °F 86 °F (1993)
Min Temperature 21 °F 43 °F 26 °F (2001)
Degree Days  
Heating Degree Days 29 12  
Month to date heating degree days 76  
Since 1 July heating degree days 236  
Cooling Degree Days 0 1  
Month to date cooling degree days 7  
Year to date cooling degree days 781  
Moisture  
Dew Point 21 °F    
Average Humidity 59    
Maximum Humidity 100    
Minimum Humidity 22    
Precipitation  
Precipitation 0.00 in 0.07 in 1.60 in (1931)
Month to date precipitation 0.59  
Year to date precipitation 28.11  
Snow  
Snow 0.00 in 0.00 in 0.00 in (2002)
Month to date snowfall 0.0  
Since 1 July snowfall 0.0  
Since 1 September snowfall 0.0  
Snow Depth -    
Sea Level Pressure  
Sea Level Pressure 30.11 in    
Wind  
Wind Speed 2 mph (SW)    
Max Wind Speed 14 mph    
Max Gust Speed 23 mph    
Visibility 10 miles    
Events      
T = Trace of Precipitation, MM = Missing Value Source: NWS Daily Summary

Daily Weather History Graph

Daily Weather History Graph

Search for Another Location

Airport:

Trip Planner

Search our weather history database for the weather conditions in past years. The results will help you decide how hot, cold, wet, or windy it might be!

Date:

Astronomy

Oct. 07, 2012 Rise Set
Actual Time 7:09 AM CDT 6:32 PM CDT
Civil Twilight 6:40 AM CDT 7:01 PM CDT
Nautical Twilight 6:06 AM CDT 7:34 PM CDT
Astronomical Twilight 5:32 AM CDT 8:08 PM CDT
Moon 11:35 PM CDT (10/7) 1:55 PM CDT (10/7)
Length of Visible Light 12h 21m
Length of Day
11h 23m
Waning Gibbous, 56% of the Moon is Illuminated
Oct 7
Waning Gibbous
Oct 8
Last Quarter
Oct 15
New
Oct 21
First Quarter
Oct 29
Full

Hourly Weather History & Observations

Time (CDT) Temp. Windchill Dew Point Humidity Pressure Visibility Wind Dir Wind Speed Gust Speed Precip Events Conditions
12:15 AM 33.8 °F - 26.6 °F 75% 30.20 in 10.0 mi Calm Calm - N/A   Overcast
12:35 AM 33.8 °F - 26.6 °F 75% 30.20 in 10.0 mi Calm Calm - N/A   Overcast
12:55 AM 33.8 °F - 26.6 °F 75% 30.19 in 10.0 mi Calm Calm - N/A   Overcast
1:15 AM 33.8 °F - 28.4 °F 81% 30.19 in 10.0 mi Calm Calm - N/A   Overcast
1:35 AM 33.8 °F - 26.6 °F 75% 30.19 in 10.0 mi Calm Calm - N/A   Overcast
1:55 AM 33.8 °F - 28.4 °F 81% 30.19 in 10.0 mi Calm Calm - N/A   Overcast
2:15 AM 32.0 °F - 28.4 °F 87% 30.19 in 10.0 mi Calm Calm - N/A   Overcast
2:35 AM 32.0 °F - 26.6 °F 80% 30.19 in 10.0 mi Calm Calm - N/A   Overcast
2:55 AM 32.0 °F - 28.4 °F 87% 30.18 in 10.0 mi Calm Calm - N/A   Overcast
3:15 AM 32.0 °F - 28.4 °F 87% 30.18 in 10.0 mi Calm Calm - N/A   Overcast
3:35 AM 32.0 °F - 28.4 °F 87% 30.18 in 10.0 mi Calm Calm - N/A   Overcast
3:55 AM 32.0 °F - 26.6 °F 80% 30.17 in 10.0 mi Calm Calm - N/A   Mostly Cloudy
4:15 AM 28.4 °F - 26.6 °F 93% 30.17 in 10.0 mi Calm Calm - N/A   Overcast
4:35 AM 28.4 °F - 24.8 °F 86% 30.17 in 10.0 mi Calm Calm - N/A   Overcast
4:55 AM 28.4 °F - 26.6 °F 93% 30.17 in 10.0 mi Calm Calm - N/A   Overcast
5:15 AM 26.6 °F - 24.8 °F 93% 30.17 in 10.0 mi Calm Calm - N/A   Overcast
5:35 AM 26.6 °F - 24.8 °F 93% 30.17 in 10.0 mi Calm Calm - N/A   Overcast
5:55 AM 26.6 °F - 26.6 °F 100% 30.17 in 10.0 mi Calm Calm - N/A   Overcast
6:15 AM 26.6 °F - 24.8 °F 93% 30.17 in 10.0 mi Calm Calm - N/A   Overcast
6:35 AM 24.8 °F - 24.8 °F 100% 30.16 in 10.0 mi Calm Calm - N/A   Scattered Clouds
6:55 AM 21.2 °F - 21.2 °F 100% 30.17 in 10.0 mi Calm Calm - N/A   Clear
7:15 AM 21.2 °F - 21.2 °F 100% 30.17 in 10.0 mi Calm Calm - N/A   Clear
7:35 AM 21.2 °F 16.4 °F 21.2 °F 100% 30.17 in 10.0 mi South 3.5 mph - N/A   Clear
7:55 AM 23.0 °F - 23.0 °F 100% 30.18 in 10.0 mi Calm Calm - N/A   Clear
8:15 AM 28.4 °F - 26.6 °F 93% 30.18 in 10.0 mi Calm Calm - N/A   Clear
8:35 AM 32.0 °F - 26.6 °F 80% 30.18 in 10.0 mi Calm Calm - N/A   Clear
8:55 AM 33.8 °F - 26.6 °F 75% 30.17 in 10.0 mi Calm Calm - N/A   Clear
9:15 AM 35.6 °F - 26.6 °F 70% 30.17 in 10.0 mi Calm Calm - N/A   Clear
9:35 AM 39.2 °F - 26.6 °F 61% 30.17 in 10.0 mi Calm Calm - N/A   Clear
9:55 AM 41.0 °F 38.0 °F 26.6 °F 57% 30.17 in 10.0 mi SW 4.6 mph - N/A   Clear
10:15 AM 42.8 °F 40.1 °F 24.8 °F 49% 30.17 in 10.0 mi WSW 4.6 mph - N/A   Clear
10:35 AM 44.6 °F 42.2 °F 23.0 °F 43% 30.16 in 10.0 mi SW 4.6 mph - N/A   Clear
10:55 AM 44.6 °F 39.7 °F 19.4 °F 37% 30.16 in 10.0 mi West 9.2 mph 19.6 mph N/A   Scattered Clouds
11:15 AM 46.4 °F 40.7 °F 19.4 °F 34% 30.15 in 10.0 mi West 12.7 mph 17.3 mph N/A   Mostly Cloudy
11:35 AM 46.4 °F 41.1 °F 19.4 °F 34% 30.15 in 10.0 mi WSW 11.5 mph 19.6 mph N/A   Mostly Cloudy
11:55 AM 48.2 °F - 19.4 °F 32% 30.14 in 10.0 mi West 8.1 mph - N/A   Mostly Cloudy
12:15 PM 46.4 °F 42.9 °F 19.4 °F 34% 30.14 in 10.0 mi WSW 6.9 mph - N/A   Overcast
12:35 PM 48.2 °F - 19.4 °F 32% 30.13 in 10.0 mi WSW 10.4 mph 16.1 mph N/A   Mostly Cloudy
12:55 PM 50.0 °F - 19.4 °F 30% 30.13 in 10.0 mi SW 9.2 mph 18.4 mph N/A   Scattered Clouds
1:15 PM 48.2 °F - 17.6 °F 30% 30.12 in 10.0 mi WSW 12.7 mph 20.7 mph N/A   Clear
1:35 PM 50.0 °F - 17.6 °F 28% 30.11 in 10.0 mi West 10.4 mph 18.4 mph N/A   Clear
1:55 PM 50.0 °F - 17.6 °F 28% 30.09 in 10.0 mi SSW 10.4 mph 19.6 mph N/A   Scattered Clouds
2:15 PM 50.0 °F - 17.6 °F 28% 30.08 in 10.0 mi SW 10.4 mph - N/A   Scattered Clouds
2:35 PM 50.0 °F - 17.6 °F 28% 30.08 in 10.0 mi WSW 8.1 mph 20.7 mph N/A   Scattered Clouds
2:55 PM 51.8 °F - 17.6 °F 26% 30.07 in 10.0 mi WSW 12.7 mph 23.0 mph N/A   Clear
3:15 PM 50.0 °F - 15.8 °F 26% 30.07 in 10.0 mi WSW 9.2 mph 18.4 mph N/A   Clear
3:35 PM 50.0 °F - 15.8 °F 26% 30.06 in 10.0 mi WSW 6.9 mph 17.3 mph N/A   Clear
3:55 PM 50.0 °F - 15.8 °F 26% 30.05 in 10.0 mi SW 11.5 mph 16.1 mph N/A   Clear
4:15 PM 51.8 °F - 14.0 °F 22% 30.04 in 10.0 mi West 12.7 mph - N/A   Clear
4:35 PM 50.0 °F - 14.0 °F 24% 30.04 in 10.0 mi WSW 9.2 mph 17.3 mph N/A   Clear
4:55 PM 50.0 °F - 14.0 °F 24% 30.03 in 10.0 mi West 13.8 mph - N/A   Clear
5:15 PM 50.0 °F - 14.0 °F 24% 30.03 in 10.0 mi WSW 11.5 mph 17.3 mph N/A   Clear
5:35 PM 48.2 °F - 14.0 °F 25% 30.03 in 10.0 mi WSW 5.8 mph - N/A   Clear
5:55 PM 50.0 °F - 14.0 °F 24% 30.03 in 10.0 mi WSW 9.2 mph - N/A   Clear
6:15 PM 46.4 °F 42.9 °F 14.0 °F 27% 30.02 in 10.0 mi WSW 6.9 mph - N/A   Clear
6:35 PM 44.6 °F 42.2 °F 14.0 °F 29% 30.02 in 10.0 mi SW 4.6 mph - N/A   Clear
6:55 PM 44.6 °F 42.2 °F 14.0 °F 29% 30.02 in 10.0 mi SW 4.6 mph - N/A   Clear
7:15 PM 42.8 °F 40.1 °F 14.0 °F 31% 30.02 in 10.0 mi SW 4.6 mph - N/A   Clear
7:35 PM 35.6 °F 32.8 °F 15.8 °F 44% 30.02 in 10.0 mi South 3.5 mph - N/A   Clear
7:55 PM 30.2 °F 26.7 °F 14.0 °F 51% 30.02 in 10.0 mi South 3.5 mph - N/A   Clear
8:15 PM 30.2 °F 25.4 °F 15.8 °F 55% 30.02 in 10.0 mi South 4.6 mph - N/A   Clear
8:35 PM 28.4 °F - 15.8 °F 59% 30.02 in 10.0 mi Calm Calm - N/A   Clear
8:55 PM 28.4 °F - 17.6 °F 64% 30.02 in 10.0 mi Calm Calm - N/A   Clear
9:15 PM 28.4 °F - 17.6 °F 64% 30.02 in 10.0 mi Calm Calm - N/A   Clear
9:35 PM 28.4 °F - 17.6 °F 64% 30.02 in 10.0 mi Calm Calm - N/A   Scattered Clouds
9:55 PM 28.4 °F - 17.6 °F 64% 30.01 in 10.0 mi Calm Calm - N/A   Scattered Clouds
10:15 PM 30.2 °F - 17.6 °F 60% 30.01 in 10.0 mi Calm Calm - N/A   Clear
10:35 PM 30.2 °F - 17.6 °F 60% 30.01 in 10.0 mi Calm Calm - N/A   Scattered Clouds
10:55 PM 28.4 °F - 17.6 °F 64% 30.01 in 10.0 mi Calm Calm - N/A   Mostly Cloudy
11:15 PM 28.4 °F - 19.4 °F 69% 30.00 in 10.0 mi Calm Calm - N/A   Overcast
11:35 PM 28.4 °F - 17.6 °F 64% 30.00 in 10.0 mi Calm Calm - N/A   Overcast
11:55 PM 26.6 °F - 17.6 °F 69% 30.00 in 10.0 mi Calm Calm - N/A   Overcast